Weather in Matsuta

Russia / Republic of North Ossetia — Alania     42°58′55″N   43°46′34″E
temp.,
°C
wind,
m/s
gust,
m/s
humid.,
%
clouds,
%
prec.,
mm/h
press.,
hPa
HPBL,
m
26 july, mon
mon2600:00+11sw119420 0.0 102016
03:00+10ssw22909 0.0 102014
06:00+11ssw118931 0.0 102015
09:00+14ne218760 0.2 1019397
12:00+16ne328347 0.9 1018495
15:00+15ne229276 1.9 1018343
18:00+14nne129786 0.4 1019214
21:00+13ssw1195100 0.9 102042
27 july, tue
tue2700:00+11sw229179 0.3 101914
03:00+11sw228734 0.6 101816
06:00+12sw118846 0.3 101819
09:00+13ne229694 0.7 1017371
12:00+12ne219894 1.6 1017184
15:00+12ne219994 3.6 1017160
18:00+11nne24100100 4.4 1018433
21:00+9nne23100100 10.9 1019267
28 july, wed
wed2800:00+9nne11100100 0.9 101996
03:00+9nne2299100 1.3 1018179
06:00+8nne23100100 2.7 1019199
09:00+8ne21100100 3.9 1020113
12:00+8ne11100100 0.4 1020128
15:00+9ne1198100 0.4 1019183
18:00+9nne2299100 0.1 1020125
21:00+8n119893 0.2 1021116
29 july, thu
thu2900:00+8wnw119554 0.0 102048
03:00+6sw229321 0.1 102026
06:00+7sw22884 0.0 102040
09:00+12nne326714 0.0 1018741
12:00+14ne427062 0.0 1017833
15:00+14ne317779 0.1 1017681
18:00+12ne218988 0.1 1018383
21:00+11s119172 0.1 101868
30 july, fri
fri3000:00+10ssw218731 0.0 101830
03:00+9sw22870 0.0 101719
06:00+10sw21800 0.0 101724
09:00+15ne32642 0.0 1015778
12:00+17ne436325 0.0 10141077
15:00+16ne327260 0.3 1014807
18:00+14ne228366 0.2 1015399
21:00+12ssw228920 0.3 101634